"TOA5","AWS1","CR1000","7964","CR1000.Std.14","CPU:AWS1_114.CR1","64363","TBL110"
"TIMESTAMP","RECORD","Wind_spd_WVc(1)","Wind_spd_WVc(2)","Air_Temp_Avg","Humidity_Avg","SW_upper_Wm2_Avg","Rain_Tot","Press_Avg","Issui_Tot","Depth_cm","SR50A_Raw","Quality","Ground_Temp_Avg(1)","Ground_Temp_Avg(2)","SW_lower_Wm2_Avg","Albedo_Avg","SWC_per(1)","SWC_per(2)","Period(1)","Period(2)"
"TS","RN","","","","","","","","","","","","","","","","","","",""
"","","WVc","WVc","Avg","Avg","Avg","Tot","Avg","Tot","Smp","Smp","Smp","Avg","Avg","Avg","Avg","Smp","Smp","Smp","Smp"
"2017-06-14 00:00:00",292381,0.046,135.1,8.46,96.3,0,0,863.3226,0,-3.431,3.165,196,14.65,13.85,0.3980287,0,48.65,56.18,32.96,34.79
"2017-06-14 00:10:00",292382,0,0,8.49,93.4,0,0,863.1815,0,-3.362,3.166,201,14.58,13.85,0.5231305,0,48.59,56.23,32.95,34.8
"2017-06-14 00:20:00",292383,0.023,157.4,8.28,97.8,0,0,863.35,0,-3.158,3.164,207,14.55,13.87,0.4511082,0,48.59,56.18,32.95,34.79
"2017-06-14 00:30:00",292384,0.174,120.7,8.2,99.3,0,0,863.3626,0,-2.78,3.161,213,14.61,13.86,0.477645,0,48.59,56.18,32.95,34.79
"2017-06-14 00:40:00",292385,0.017,115.5,8.42,95.3,0,0,863.291,0,-3.941,3.17,200,14.51,13.87,0.6368605,0,48.65,56.18,32.96,34.79
"2017-06-14 00:50:00",292386,0.032,116.2,8.29,96.3,0,0,863.2678,0,-4.402,3.176,197,14.46,13.88,0.2388227,0,48.65,56.18,32.96,34.79
"2017-06-14 01:00:00",292387,0,0,8.48,93.5,0,0,863.1351,0,-4.551,3.176,196,14.5,13.9,0.579998,0,48.65,56.18,32.96,34.79
"2017-06-14 01:10:00",292388,0.019,115.7,8.57,91,0,0,863.1667,0,-4.757,3.179,187,14.42,13.92,0.4435278,0,48.65,56.18,32.96,34.79
"2017-06-14 01:20:00",292389,0.004,147.7,8.19,95.8,0,0,863.1119,0,-4.812,3.182,186,14.4,13.93,0.03411753,0,48.65,56.18,32.96,34.79
"2017-06-14 01:30:00",292390,0.161,158.2,7.63,99.8,0,0,862.9835,0,-4.105,3.177,199,14.41,13.93,0,0,48.59,56.18,32.95,34.79
"2017-06-14 01:40:00",292391,0.274,182.5,7.358,100,0,0,862.8585,0,-3.655,3.175,209,14.3,13.93,0,0,48.59,56.18,32.95,34.79
"2017-06-14 01:50:00",292392,0.28,185.7,7.278,100,0,0,862.63,0,-3.955,3.176,200,14.31,13.92,0.1592151,0,48.59,56.18,32.95,34.79
"2017-06-14 02:00:00",292393,0.083,171.5,7.595,98.3,0,0,862.641,0,-4.134,3.179,209,14.32,13.9,0.4662729,0,48.65,56.18,32.96,34.79
"2017-06-14 02:10:00",292394,0.156,159.7,7.042,100,0,0,862.6296,0,-4.19,3.182,198,14.22,13.87,0,0,48.59,56.18,32.95,34.79
"2017-06-14 02:20:00",292395,0.288,170,6.747,100,0,0,862.5604,0,-4.472,3.187,192,14.28,13.85,0,0,48.65,56.18,32.96,34.79
"2017-06-14 02:30:00",292396,0.362,173.1,6.532,100,0,0,862.5695,0,-4.218,3.184,189,14.16,13.85,0.1023526,0,48.59,56.18,32.95,34.79
"2017-06-14 02:40:00",292397,0.328,180.2,6.591,100,0,0,862.4365,0,-4.42,3.186,190,14.16,13.81,0.2501952,0,48.65,56.12,32.96,34.78
"2017-06-14 02:50:00",292398,0.499,180.8,6.441,100,0,0,862.4467,0,-4.068,3.184,199,14.17,13.81,0.1440518,0,48.59,56.18,32.95,34.79
"2017-06-14 03:00:00",292399,0.516,187.2,6.262,100,0,0,862.4435,0,-3.461,3.178,209,14.08,13.81,0.1478426,0,48.59,56.12,32.95,34.78
"2017-06-14 03:10:00",292400,0.443,185.9,6.213,100,0,0,862.4417,0,-3.461,3.178,200,14.08,13.83,0.2122868,0,48.59,56.12,32.95,34.78
"2017-06-14 03:20:00",292401,0.271,187.4,6.455,100,0,0,862.4417,0,3.166,3.112,382,14,13.84,0.4928087,0,48.59,56.12,32.95,34.78
"2017-06-14 03:30:00",292402,0.152,199,6.448,100,0,0,862.4417,0,5.04,3.093,457,14,13.85,0.439737,0,48.59,56.12,32.95,34.78
"2017-06-14 03:40:00",292403,0.4,193.9,6.257,100,0,0,862.4438,0,6.245,3.083,467,14.02,13.85,0.2918944,0,48.59,56.12,32.95,34.78
"2017-06-14 03:50:00",292404,0.21,189.1,6.272,100,0,0,862.4417,0,4.679,3.098,368,13.93,13.84,0.4511095,0,48.59,56.12,32.95,34.78
"2017-06-14 04:00:00",292405,0.413,194.8,6.111,100,0,0,862.4417,0,2.908,3.116,390,13.93,13.78,0.3335936,0,48.65,56.12,32.96,34.78
"2017-06-14 04:10:00",292406,0.434,193.6,6.085,100,0,0,862.4417,0,-1.745,3.163,253,13.86,13.76,0.3677111,0,48.59,56.12,32.95,34.78
"2017-06-14 04:20:00",292407,0.449,192.5,5.896,100,0,0,862.4417,0,-3.01,3.176,213,13.83,13.77,0.3222211,0,48.59,56.12,32.95,34.78
"2017-06-14 04:30:00",292408,0.481,186.5,5.864,100,0,0,862.4016,0,1.134,3.135,310,13.8,13.79,0.5610438,0,48.59,56.12,32.95,34.78
"2017-06-14 04:40:00",292409,0.489,184.7,5.963,100,0.7823937,0,862.231,0,1.615,3.13,406,13.77,13.8,0.8870557,0.845,48.59,56.12,32.95,34.78
"2017-06-14 04:50:00",292410,0.494,190,5.875,100,4.033849,0,862.2331,0,2.246,3.124,385,13.76,13.8,1.285094,0.333,48.65,56.12,32.96,34.78
"2017-06-14 05:00:00",292411,0.416,189.9,5.945,100,8.008724,0,862.1888,0,2.096,3.125,486,13.68,13.79,1.758948,0.222,48.59,56.12,32.95,34.78
"2017-06-14 05:10:00",292412,0.256,177.6,6.008,100,11.71625,0,862.3005,0,1.59,3.13,256,13.65,13.77,2.047052,0.176,48.65,56.12,32.96,34.78
"2017-06-14 05:20:00",292413,0.121,199.4,6.203,100,15.3648,0,862.1973,0,0.937,3.135,240,13.66,13.76,2.509534,0.164,48.59,56.12,32.95,34.78
"2017-06-14 05:30:00",292414,0.088,199.7,6.34,100,19.78002,0,862.2078,0,0.839,3.135,232,13.66,13.76,3.157767,0.159,48.59,56.12,32.95,34.78
"2017-06-14 05:40:00",292415,0,0,6.593,100,29.21592,0,862.4185,0,0.867,3.134,241,13.58,13.76,5.492922,0.187,48.59,56.12,32.95,34.78
"2017-06-14 05:50:00",292416,0,0,6.708,100,106.61,0,862.4354,0,1.404,3.127,296,13.59,13.76,16.97157,0.168,48.59,56.12,32.95,34.78
"2017-06-14 06:00:00",292417,0.043,194.9,7.111,100,178.0241,0,862.3469,0,2.026,3.117,441,13.54,13.76,21.90724,0.139,48.65,56.06,32.96,34.76
"2017-06-14 06:10:00",292418,0.023,110.9,7.65,96.5,146.001,0,862.3068,0,1.875,3.118,490,13.48,13.76,29.89454,0.346,48.65,56.06,32.96,34.76
"2017-06-14 06:20:00",292419,0,0,8.37,88.9,68.90176,0,862.2205,0,1.702,3.113,503,13.42,13.72,33.22289,0.525,48.65,56.06,32.96,34.76
"2017-06-14 06:30:00",292420,0.019,113,9.1,84.6,129.9992,0,862.3743,0,-5.2,3.178,195,13.42,13.69,34.68615,0.36,48.59,56.06,32.95,34.76
"2017-06-14 06:40:00",292421,0.34,1.875,9.09,81.3,161.008,0,862.398,0,2.514,3.105,485,13.42,13.68,33.9204,0.258,48.65,56.06,32.96,34.76
"2017-06-14 06:50:00",292422,0.712,358.8,8.92,81.1,50.65901,0,862.2318,0,-4.266,3.171,192,13.48,13.71,36.50575,0.731,48.59,56.06,32.95,34.76
"2017-06-14 07:00:00",292423,0.633,358.3,9.16,80.1,126.9994,0,862.1827,0,318,0,0,13.47,13.7,36.09634,0.344,48.59,56.06,32.95,34.76
"2017-06-14 07:10:00",292424,0.853,353.3,9.38,79.58,66.71185,0,862.1014,0,-4.942,3.174,180,13.33,13.68,37.79843,0.594,48.59,56.06,32.95,34.76
"2017-06-14 07:20:00",292425,0.875,353,9.59,78.74,130.7285,0,862.0954,0,-16.89,3.291,170,13.33,13.7,39.18164,0.405,48.65,56.06,32.96,34.76
"2017-06-14 07:30:00",292426,0.698,349.8,9.99,75.99,105.3691,0,862.0464,0,0.595,3.116,390,13.3,13.68,43.68883,0.434,48.65,56.06,32.96,34.76
"2017-06-14 07:40:00",292427,0.566,27.9,10.37,70.74,356.0261,0,862.0232,0,23.32,2.892,300,13.26,13.64,48.02624,0.241,48.65,56.06,32.96,34.76
"2017-06-14 07:50:00",292428,0.502,351.1,10.74,73.09,647.0286,0,862.0989,0,24.17,2.883,304,13.2,13.6,65.11816,0.1,48.65,56.06,32.96,34.76
"2017-06-14 08:00:00",292429,0.834,355.8,10.53,77.15,683.493,0,862.0989,0,-15.55,3.272,176,13.22,13.59,88.64986,0.13,48.65,56.06,32.96,34.76
"2017-06-14 08:10:00",292430,0.438,355.7,11.05,76.83,717.0126,0,862.16,0,318,0,0,13.21,13.58,106.2743,0.148,48.65,56.06,32.96,34.76
"2017-06-14 08:20:00",292431,0.806,11.27,11,78.03,750.8347,0,862.3412,0,-15.83,3.272,184,13.19,13.55,119.943,0.16,48.65,56.06,32.96,34.76
"2017-06-14 08:30:00",292432,0.834,6.657,11,77.96,791.1296,0,862.2338,0,-3.687,3.154,213,13.19,13.57,130.955,0.166,48.59,56.06,32.95,34.76
"2017-06-14 08:40:00",292433,1.054,16.86,11.07,78.14,843.3849,0,862.1732,0,318,0,0,13.18,13.56,141.5214,0.168,48.65,56.06,32.96,34.76
"2017-06-14 08:50:00",292434,0.875,2.005,11.42,76.13,834.196,0,862.0217,0,-19.95,3.31,170,13.14,13.52,138.8953,0.165,48.65,56,32.96,34.75
"2017-06-14 09:00:00",292435,0.751,6.978,11.97,73.82,909.6647,0,862.0068,0,24.09,2.874,282,13.11,13.49,151.4728,0.167,48.59,56.06,32.95,34.76
"2017-06-14 09:10:00",292436,0.557,24.26,12.85,69.41,926.9744,0,861.921,0,24.7,2.865,289,13.1,13.45,152.1158,0.164,48.65,56.06,32.96,34.76
"2017-06-14 09:20:00",292437,0.489,45.73,13.15,61.93,946.2045,0,861.9354,0,24.37,2.866,257,13.09,13.45,154.4629,0.163,48.59,56.06,32.95,34.76
"2017-06-14 09:30:00",292438,0.663,15.1,13.36,64.24,964.3099,0,861.9711,0,24.87,2.862,333,13.08,13.42,156.9361,0.163,48.65,56.06,32.96,34.76
"2017-06-14 09:40:00",292439,0.405,296.7,13.48,62.95,991.6506,0,862.009,0,-15.33,3.254,184,13.04,13.4,160.9932,0.162,48.65,56,32.96,34.75
"2017-06-14 09:50:00",292440,0.669,335.6,13.48,62.26,1017.31,0,861.9542,0,5.113,3.054,245,13.03,13.36,165.2776,0.162,48.59,56.06,32.95,34.76
"2017-06-14 10:00:00",292441,0.411,316.7,13.72,60.87,1038.318,0,861.8637,0,5.397,3.048,288,13.03,13.36,168.6075,0.162,48.59,56,32.95,34.75
"2017-06-14 10:10:00",292442,0.722,323.4,13.7,56.69,1062.874,0,861.8447,0,-14.76,3.248,176,13.02,13.34,172.392,0.162,48.59,56,32.95,34.75
"2017-06-14 10:20:00",292443,1.068,16.04,13.54,54.54,1085.513,0,861.7563,0,-15.22,3.252,176,13.05,13.32,178.5858,0.165,48.59,56,32.95,34.75
"2017-06-14 10:30:00",292444,0.869,6.178,13.86,54.57,1104.737,0,861.6763,0,24.19,2.865,259,13.06,13.35,183.465,0.166,48.54,56,32.93,34.75
"2017-06-14 10:40:00",292445,0.801,3.42,14.57,50.76,1120.712,0,861.5037,0,7.657,3.023,280,13.09,13.34,187.295,0.167,48.54,56,32.93,34.75
"2017-06-14 10:50:00",292446,0.532,18.99,15.09,46.18,1131.281,0,861.3647,0,318,0,0,13.1,13.31,188.1738,0.166,48.54,56,32.93,34.75
"2017-06-14 11:00:00",292447,0.594,12.22,15.58,39.59,1138.279,0,861.2468,0,-14.63,3.234,188,13.17,13.26,185.6509,0.163,48.54,56,32.93,34.75
"2017-06-14 11:10:00",292448,0.572,73.55,15.96,37.67,1133.458,0,861.0531,0,-17.04,3.254,189,13.25,13.25,185.9653,0.164,48.54,56,32.93,34.75
"2017-06-14 11:20:00",292449,0.361,284,16.91,35.19,1134.452,0,860.9984,0,23.1,2.859,254,13.25,13.22,187.6473,0.165,48.54,56,32.93,34.75
"2017-06-14 11:30:00",292450,0.496,33.2,17.55,31.45,1132.731,0,860.9984,0,24.25,2.847,252,13.31,13.21,189.2649,0.167,48.54,55.95,32.93,34.74
"2017-06-14 11:40:00",292451,0.599,22.2,17.68,34.2,1136.876,0,861.0089,0,-14.49,3.223,170,13.4,13.22,189.8445,0.167,48.48,55.95,32.92,34.74
"2017-06-14 11:50:00",292452,0.308,273.9,17.53,33.3,1136.758,0,861.0426,0,25.63,2.832,225,13.51,13.24,190.1475,0.167,48.48,55.95,32.92,34.74
"2017-06-14 12:00:00",292453,0.625,327.5,17.38,30.66,1134.731,0,860.9984,0,-15.68,3.235,182,13.56,13.26,191.1476,0.168,48.48,55.95,32.92,34.74
"2017-06-14 12:10:00",292454,0.397,271.8,17.68,27.9,1131.717,0,860.8131,0,-14.25,3.218,170,13.66,13.27,192.8107,0.17,48.43,55.95,32.9,34.74
"2017-06-14 12:20:00",292455,0.491,328.2,17.97,27.31,1127.23,0,860.6804,0,25.93,2.829,255,13.76,13.27,192.4318,0.171,48.48,55.95,32.92,34.74
"2017-06-14 12:30:00",292456,0.534,284.9,18.07,22.32,1119.865,0,860.6257,0,24.06,2.848,244,13.86,13.25,191.9799,0.171,48.38,55.95,32.89,34.74
"2017-06-14 12:40:00",292457,0.465,288.6,17.73,16.81,1108.342,0,860.493,0,24.44,2.846,227,13.94,13.25,191.7135,0.173,48.43,55.89,32.9,34.72
"2017-06-14 12:50:00",292458,0.381,295.2,18.07,22.9,1098,0,860.493,0,23.64,2.85,232,14.07,13.24,188.7522,0.172,48.38,55.89,32.89,34.72
"2017-06-14 13:00:00",292459,0.393,348.1,18.28,24.05,1086.775,0,860.493,0,-2.489,3.102,213,14.17,13.22,183.9722,0.169,48.38,55.89,32.89,34.72
"2017-06-14 13:10:00",292460,0.712,15.18,18.24,23.72,1093.865,0,860.493,0,24.44,2.842,279,14.26,13.23,185.0938,0.169,48.32,55.89,32.88,34.72
"2017-06-14 13:20:00",292461,0.651,301.2,18.03,22.49,1065.317,0,860.4825,0,-14.82,3.224,182,14.39,13.22,184.7074,0.173,48.32,55.89,32.88,34.72
"2017-06-14 13:30:00",292462,0.423,288.6,18.07,24.45,1051.876,0,860.3035,0,318,0,0,14.51,13.2,183.6353,0.175,48.32,55.89,32.88,34.72
"2017-06-14 13:40:00",292463,0.674,2.382,18.88,21.29,1057.227,0,860.2403,0,-17.2,3.242,171,14.59,13.18,180.9684,0.171,48.27,55.83,32.86,34.71
"2017-06-14 13:50:00",292464,0.751,11.06,18.54,19.94,1034.919,0,860.2403,0,-14.39,3.215,171,14.69,13.18,175.0739,0.169,48.27,55.83,32.86,34.71
"2017-06-14 14:00:00",292465,0.57,279.3,18.62,22.67,996.0103,0,860.2403,0,24.89,2.837,228,14.79,13.19,168.618,0.169,48.21,55.89,32.85,34.72
"2017-06-14 14:10:00",292466,0.47,258.7,18.56,29.03,970.5154,0,860.0172,0,-15.63,3.228,171,14.88,13.19,162.8207,0.168,48.21,55.83,32.85,34.71
"2017-06-14 14:20:00",292467,0.478,228.7,18.66,30.73,901.6396,0,859.8824,0,24.71,2.839,258,14.98,13.19,149.7523,0.163,48.21,55.83,32.85,34.71
"2017-06-14 14:30:00",292468,0.508,184.5,18.62,32.36,1008.585,0,859.9835,0,318,0,0,15.1,13.17,165.5878,0.164,48.16,55.83,32.84,34.71
"2017-06-14 14:40:00",292469,0.615,44.68,18.9,32.49,848.2112,0,859.9119,0,18.5,2.896,400,15.18,13.14,129.9899,0.149,48.16,55.77,32.84,34.7
"2017-06-14 14:50:00",292470,0.489,284.7,18.88,34.05,742.8255,0,859.7351,0,-21.74,3.291,201,15.23,13.12,101.9456,0.122,48.11,55.77,32.82,34.7
"2017-06-14 15:00:00",292471,0.767,81.8,17.72,35.8,650.7783,0,859.7455,0,-22.79,3.3,202,15.32,13.17,83.52709,0.118,48.11,55.83,32.82,34.71
"2017-06-14 15:10:00",292472,0.34,196.7,17.87,38.15,591.0623,0,859.7351,0,4.367,3.037,328,15.44,13.16,64.77905,0.107,48.11,55.77,32.82,34.7
"2017-06-14 15:20:00",292473,0.543,119,18.06,37.9,598.5626,0,859.7582,0,-4.776,3.126,197,15.51,13.13,53.2552,0.088,48.05,55.83,32.81,34.71
"2017-06-14 15:30:00",292474,0.374,52.21,17.65,41.24,121.1057,0,859.7351,0,-0.788,3.092,291,15.59,13.17,13.00506,0.104,48.05,55.83,32.81,34.71
"2017-06-14 15:40:00",292475,0.357,143.9,17.45,41.71,332.7775,0,859.7351,0,318,0,0,15.63,13.22,43.22392,0.141,48.05,55.77,32.81,34.7
"2017-06-14 15:50:00",292476,0.336,221.5,17.97,45.34,163.6758,0,859.7351,0,7.088,3.012,296,15.7,13.22,36.93164,0.229,48.11,55.77,32.82,34.7
"2017-06-14 16:00:00",292477,0.338,243.2,17.86,49.12,149.787,0,859.8887,0,6.413,3.019,319,15.77,13.26,29.21497,0.198,48.05,55.77,32.81,34.7
"2017-06-14 16:10:00",292478,0.529,230.5,17.4,50.47,115.6524,0,860.0908,0,25.34,2.839,336,15.86,13.28,20.46033,0.182,48,55.77,32.8,34.7
"2017-06-14 16:20:00",292479,0.288,239.5,17.14,52.18,103.618,0,860.234,0,4.096,3.046,244,15.86,13.28,17.02818,0.162,48,55.77,32.8,34.7
"2017-06-14 16:30:00",292480,0.432,246,16.51,53.21,80.03649,0,860.2403,0,-14.7,3.231,176,15.97,13.3,13.61497,0.17,48,55.77,32.8,34.7
"2017-06-14 16:40:00",292481,0.482,217.8,16.17,54.41,83.38395,0,860.2403,0,318,0,0,15.97,13.3,11.11851,0.133,47.95,55.77,32.78,34.7
"2017-06-14 16:50:00",292482,0.407,223.2,15.74,57.31,102.7733,0,860.2698,0,-19.39,3.28,190,15.99,13.32,16.05081,0.155,47.95,55.72,32.78,34.68
"2017-06-14 17:00:00",292483,0.425,241.7,15.54,58.96,82.35864,0,860.4067,0,-34.01,3.425,266,16.05,13.35,12.6111,0.152,47.95,55.72,32.78,34.68
"2017-06-14 17:10:00",292484,0.525,197.4,15.16,61.22,73.72099,0,860.2614,0,5.47,3.044,301,16.06,13.42,11.16431,0.15,47.95,55.72,32.78,34.68
"2017-06-14 17:20:00",292485,0.439,213.2,14.95,58.97,54.29019,0,860.4151,0,-35.87,3.445,254,16.09,13.48,7.838465,0.144,47.89,55.72,32.77,34.68
"2017-06-14 17:30:00",292486,0.133,252.2,14.83,60.25,75.04558,0,860.568,0,3.55,3.063,294,16.09,13.52,10.76017,0.138,47.89,55.72,32.77,34.68
"2017-06-14 17:40:00",292487,0.256,220.1,14.59,60.65,80.68495,0,860.7403,0,-23.2,3.325,209,16.11,13.54,12.93563,0.16,47.89,55.66,32.77,34.67
"2017-06-14 17:50:00",292488,0.146,156.5,14.41,61.39,70.40013,0,860.7515,0,-15.67,3.252,171,16.12,13.54,11.05299,0.155,47.84,55.66,32.76,34.67
"2017-06-14 18:00:00",292489,0.162,184.8,14.19,62.32,39.25286,0,860.9327,0,-15.7,3.255,179,16.13,13.56,4.808583,0.121,47.84,55.66,32.76,34.67
"2017-06-14 18:10:00",292490,0.224,162.1,13.72,63.52,29.66381,0,861.0689,0,-15.83,3.258,174,16.17,13.61,3.531621,0.118,47.84,55.66,32.76,34.67
"2017-06-14 18:20:00",292491,0.083,177.8,13.55,62.94,29.1575,0,861.2623,0,-15.25,3.253,170,16.18,13.67,4.410834,0.152,47.84,55.66,32.76,34.67
"2017-06-14 18:30:00",292492,0.338,145.6,13.39,60.16,18.2125,0,861.3057,0,-15.15,3.254,170,16.21,13.68,2.667774,0.146,47.84,55.66,32.76,34.67
"2017-06-14 18:40:00",292493,0.457,102.4,13,57.65,10.88679,0,861.5141,0,24.27,2.87,293,16.21,13.68,1.637068,0.151,47.84,55.66,32.76,34.67
"2017-06-14 18:50:00",292494,0.477,178.2,12.84,58.04,7.475379,0,861.6723,0,22.85,2.885,354,16.18,13.73,1.125491,0.15,47.79,55.66,32.74,34.67
"2017-06-14 19:00:00",292495,0.342,168.9,12.65,57.97,5.663536,0,861.8244,0,5.143,3.059,273,16.17,13.74,1.159599,0.204,47.79,55.66,32.74,34.67
"2017-06-14 19:10:00",292496,0.583,184.6,12.46,59.21,1.646789,0,861.8377,0,5.977,3.052,380,16.18,13.83,0.4054809,0.223,47.79,55.66,32.74,34.67
"2017-06-14 19:20:00",292497,0.329,185.5,12.28,61.5,0,0,861.8659,0,6.89,3.044,421,16.13,13.84,0,0,47.79,55.6,32.74,34.65
"2017-06-14 19:30:00",292498,0.128,225.4,12.2,59.23,0,0,862.1481,0,6.127,3.051,404,16.08,13.84,0.1098967,0,47.79,55.6,32.74,34.65
"2017-06-14 19:40:00",292499,0.254,179.3,12.18,59.46,0,0,862.3113,0,5.397,3.06,478,16.04,13.81,0.0644222,0,47.79,55.6,32.74,34.65
"2017-06-14 19:50:00",292500,0.115,112.6,11.63,63.77,0,0,862.3516,0,-13.38,3.247,172,16.07,13.77,0,0,47.79,55.6,32.74,34.65
"2017-06-14 20:00:00",292501,0.312,73.94,11.52,60.22,0,0,862.3516,0,25.67,2.862,267,16.04,13.79,0.189477,0,47.79,55.6,32.74,34.65
"2017-06-14 20:10:00",292502,0.242,169.1,12.22,51.69,0,0,862.3516,0,-14.5,3.253,190,15.97,13.89,0.8829631,0,47.73,55.6,32.73,34.65
"2017-06-14 20:20:00",292503,0.173,140.3,11.73,60.17,0,0,862.3622,0,-14.14,3.253,184,15.97,13.92,0.007579082,0,47.73,55.6,32.73,34.65
"2017-06-14 20:30:00",292504,0.115,70.13,11.66,52.28,0,0,862.4759,0,25.14,2.867,251,15.92,13.89,0.09852806,0,47.73,55.55,32.73,34.64
"2017-06-14 20:40:00",292505,0.189,45.32,12.38,32.51,0,0,862.6002,0,25.22,2.864,242,15.88,13.88,0.9435957,0,47.73,55.55,32.73,34.64
"2017-06-14 20:50:00",292506,0.283,86.3,12.02,35.76,0,0,862.6044,0,25.31,2.867,272,15.92,13.9,0.1288444,0,47.73,55.55,32.73,34.64
"2017-06-14 21:00:00",292507,0.046,122.2,10.9,46.47,0,0,862.6044,0,-15.34,3.271,188,15.82,13.95,0,0,47.73,55.55,32.73,34.64
"2017-06-14 21:10:00",292508,0.008,129.1,10.3,51.71,0,0,862.6044,0,4.744,3.076,256,15.8,14.01,0,0,47.73,55.55,32.73,34.64
"2017-06-14 21:20:00",292509,0.198,22.15,10.75,42.84,0,0,862.6002,0,25.24,2.866,274,15.8,14.02,0.7313814,0,47.73,55.6,32.73,34.65
"2017-06-14 21:30:00",292510,0.369,23.16,12.04,36.95,0,0,862.4379,0,-13.7,3.244,171,15.73,14.02,1.534764,0,47.73,55.55,32.73,34.64
"2017-06-14 21:40:00",292511,0.298,32.4,12.55,36.89,0,0,862.5643,0,-15.01,3.257,170,15.75,14.02,1.349077,0,47.68,55.49,32.71,34.63
"2017-06-14 21:50:00",292512,0.237,52.45,11.64,43.33,0,0,862.4528,0,4.775,3.071,242,15.66,14.02,0.1477921,0,47.73,55.55,32.73,34.64
"2017-06-14 22:00:00",292513,0.124,73.27,10.62,47.51,0,0,862.3516,0,3.881,3.084,253,15.66,14.02,0,0,47.73,55.55,32.73,34.64
"2017-06-14 22:10:00",292514,0.112,167.1,9.61,54.13,0,0,862.3516,0,-17.3,3.299,170,15.58,14.02,0,0,47.73,55.55,32.73,34.64
"2017-06-14 22:20:00",292515,0.181,175.2,8.94,48.78,0,0,862.3495,0,25.56,2.878,316,15.58,14.02,0,0,47.73,55.55,32.73,34.64
"2017-06-14 22:30:00",292516,0.556,179.4,8.67,50.24,0,0,862.2,0,25.76,2.878,298,15.55,14.02,0,0,47.73,55.55,32.73,34.64
"2017-06-14 22:40:00",292517,0.307,183.1,8.6,50.47,0,0,862.0883,0,26.69,2.867,306,15.51,14.03,0.003789915,0,47.73,55.49,32.73,34.63
"2017-06-14 22:50:00",292518,0.245,179.3,8.95,49.04,0,0,862.0693,0,25.96,2.874,322,15.47,14.06,0.2804627,0,47.68,55.55,32.71,34.64
"2017-06-14 23:00:00",292519,0.094,166.1,8.9,47,0,0,862.0967,0,25.49,2.879,275,15.49,14.13,0.4396936,0,47.68,55.55,32.71,34.64
"2017-06-14 23:10:00",292520,0.022,189.6,8.83,49.46,0,0,861.962,0,25.36,2.882,274,15.45,14.18,0.2994637,0,47.68,55.49,32.71,34.63
"2017-06-14 23:20:00",292521,0.544,176.5,7.948,52.27,0,0,861.8441,0,25.87,2.88,264,15.41,14.19,0,0,47.68,55.49,32.71,34.63
"2017-06-14 23:30:00",292522,0.695,181.5,7.973,49.49,0,0,861.7872,0,25.74,2.88,276,15.36,14.19,0.1364697,0,47.62,55.49,32.7,34.63
"2017-06-14 23:40:00",292523,0.587,187,8.33,44.79,0,0,861.7264,0,25.93,2.877,314,15.36,14.2,0.4511091,0,47.68,55.49,32.71,34.63
"2017-06-14 23:50:00",292524,0.572,187,8.27,47.12,0,0,861.5992,0,26.05,2.876,301,15.32,14.2,0.1364701,0,47.68,55.49,32.71,34.63
